Regional Weather Roundup
Issued by NWS

Home | Current Version | Previous Version | Graphics & Text | Print | Product List | Glossary On
Versions: 1 2 3 4 5 6 7 8 9 10 11 12 13 14 15 16 17 18 19 20 21 22 23 24 25 26 27 28 29 30 31 32 33 34 35 36 37 38 39 40 41 42 43 44 45 46 47 48 49 50
000
ASUS45 KBOI 290410
RWRID

IDAHO REGIONAL WEATHER ROUNDUP
NATIONAL WEATHER SERVICE BOISE ID
1000 PM MDT FRI AUG 28 2015

NOTE: "FAIR" INDICATES FEW OR NO CLOUDS BELOW 12000 FEET
WITH NO SIGNIFICANT WEATHER AND/OR OBSTRUCTIONS TO VISIBILITY

IDZ012-014-290500-
SOUTHWEST IDAHO


CITY           SKY/WX    TMP DP  RH WIND       PRES   REMARKS
BOISE          CLOUDY    80  44  27 SE3       29.89R
CALDWELL         N/A     75  46  35 CALM      29.87S
MOUNTAIN HOME  MOCLDY    76  41  28 W8        29.90R
$$

IDZ016-017-290500-
SOUTHCENTRAL IDAHO


CITY           SKY/WX    TMP DP  RH WIND       PRES   REMARKS
JEROME         CLOUDY    77  49  37 S10       30.00R
TWIN FALLS     CLOUDY    83  38  20 S9        30.00R
$$

IDZ019>023-290500-
SOUTHEAST IDAHO


CITY           SKY/WX    TMP DP  RH WIND       PRES   REMARKS
IDAHO FALLS    PTCLDY    76  40  27 S10       30.09R
POCATELLO      CLEAR     72  41  32 CALM      30.05S
REXBURG        CLEAR     72  40  31 S6        30.10R
$$

IDZ006-010-011-018-031-032-290500-
CENTRAL IDAHO MOUNTAINS


CITY           SKY/WX    TMP DP  RH WIND       PRES   REMARKS
MCCALL         CLOUDY    66  41  40 NE3       30.06S
HAILEY         PTCLDY    66  54  63 CALM      30.11R
STANLEY          N/A     65  36  34 SW3       30.19S
SALMON         CLOUDY    73  43  33 E3        30.02S
CHALLIS        CLOUDY    75  40  28 NE3       30.07R
$$

IDZ002-004-006-007-026-290500-
NORTHERN IDAHO


CITY           SKY/WX    TMP DP  RH WIND       PRES   REMARKS
LEWISTON       CLOUDY    79  43  27 E10       29.83R
LOWELL           N/A     66  56  70 N5        29.93R
COEUR D`ALENE  CLOUDY    70  46  43 CALM      29.91S
MULLAN PASS    CLOUDY    58  39  49 S7        30.13S HAZE
$$



USA.gov is the U.S. government's official web portal to all federal, state and local government web resources and services.